When you browse on this site, cookies collect data to enhance your experience and personalize the content and advertising you see.
Visit our Privacy Policy to learn more. By continuing to use the site, you agree to this use of cookies and data.
  • en Belgique
  • Liste des pays
  • À 7 jours
  • Température de l'eau
  • Carte satellitaire
  • Carte météo
  • Widgets météo
  • user-avatar
    Se connecter

    Météo par heure à Asse

    Ce jour, 21 Novembre, Mercredi

    Heure Température Précipitation Vent Pression Humidité
    00:00 +1°C° 0 mm 3 m/s 752 mmHg 79%
    01:00 +1°C° 0 mm 3 m/s 752 mmHg 79%
    02:00 +1°C° 0 mm 3 m/s 753 mmHg 80%
    03:00 +1°C° 0 mm 3 m/s 753 mmHg 80%
    04:00 +1°C° 0 mm 3 m/s 754 mmHg 82%
    05:00 +1°C° 0 mm 2 m/s 754 mmHg 84%
    06:00 +1°C° 0 mm 2 m/s 755 mmHg 86%
    07:00 +2°C° 0 mm 2 m/s 755 mmHg 83%
    08:00 +3°C° 0 mm 1 m/s 756 mmHg 80%
    09:00 +4°C° 0 mm 1 m/s 756 mmHg 77%
    10:00 +5°C° 0 mm 1 m/s 757 mmHg 73%
    11:00 +6°C° 0 mm 1 m/s 757 mmHg 70%
    12:00 +7°C° 0 mm 1 m/s 757 mmHg 66%
    13:00 +5°C° 0 mm 2 m/s 758 mmHg 69%
    14:00 +5°C° 0 mm 2 m/s 758 mmHg 71%
    15:00 +5°C° 0 mm 2 m/s 758 mmHg 74%
    16:00 +4°C° 0 mm 2 m/s 758 mmHg 76%
    17:00 +4°C° 0 mm 2 m/s 758 mmHg 78%
    18:00 +3°C° 0 mm 2 m/s 759 mmHg 80%
    19:00 +3°C° 0 mm 2 m/s 759 mmHg 81%
    20:00 +3°C° 0 mm 2 m/s 759 mmHg 82%
    21:00 +3°C° 0 mm 2 m/s 759 mmHg 82%
    22:00 +2°C° 0 mm 2 m/s 759 mmHg 83%
    23:00 +2°C° 0 mm 2 m/s 759 mmHg 84%

    Demain, 22 Novembre, Jeudi

    Heure Température Précipitation Vent Pression Humidité
    00:00 +2°C° 0 mm 2 m/s 759 mmHg 85%
    01:00 +2°C° 0 mm 2 m/s 759 mmHg 86%
    02:00 +1°C° 0 mm 2 m/s 759 mmHg 87%
    03:00 +1°C° 0 mm 2 m/s 759 mmHg 88%
    04:00 +1°C° 0 mm 2 m/s 759 mmHg 88%
    05:00 +1°C° 0 mm 2 m/s 759 mmHg 89%
    06:00 -1°C° 0 mm 2 m/s 759 mmHg 90%
    07:00 +1°C° 0 mm 2 m/s 759 mmHg 86%
    08:00 +2°C° 0 mm 2 m/s 759 mmHg 83%
    09:00 +2°C° 0 mm 2 m/s 759 mmHg 80%
    10:00 +4°C° 0 mm 2 m/s 759 mmHg 75%
    11:00 +5°C° 0 mm 2 m/s 759 mmHg 70%
    12:00 +7°C° 0 mm 2 m/s 759 mmHg 65%
    13:00 +6°C° 0 mm 2 m/s 759 mmHg 67%
    14:00 +6°C° 0 mm 2 m/s 758 mmHg 70%
    15:00 +6°C° 0 mm 2 m/s 758 mmHg 73%
    16:00 +5°C° 0 mm 2 m/s 758 mmHg 76%
    17:00 +4°C° 0 mm 2 m/s 759 mmHg 80%
    18:00 +3°C° 0 mm 2 m/s 759 mmHg 83%
    19:00 +3°C° 0 mm 2 m/s 759 mmHg 85%
    20:00 +3°C° 0 mm 2 m/s 759 mmHg 87%
    21:00 +3°C° 0 mm 2 m/s 759 mmHg 88%
    22:00 +3°C° 0 mm 2 m/s 759 mmHg 89%
    23:00 +3°C° 0 mm 2 m/s 759 mmHg 90%

    Après-demain, 23 Novembre, Vendredi

    Heure Température Précipitation Vent Pression Humidité
    00:00 +3°C° 0 mm 2 m/s 758 mmHg 91%
    01:00 +3°C° 0.3 mm 2 m/s 758 mmHg 92%
    02:00 +4°C° 0.3 mm 2 m/s 758 mmHg 93%
    03:00 +4°C° 0.3 mm 2 m/s 758 mmHg 94%
    04:00 +4°C° 0.2 mm 2 m/s 758 mmHg 95%
    05:00 +4°C° 0.2 mm 2 m/s 758 mmHg 95%
    06:00 +4°C° 0.2 mm 2 m/s 758 mmHg 96%
    07:00 +3°C° 0 mm 3 m/s 758 mmHg 94%
    08:00 +4°C° 0 mm 3 m/s 758 mmHg 92%
    09:00 +4°C° 0 mm 3 m/s 758 mmHg 91%
    10:00 +5°C° 0 mm 3 m/s 758 mmHg 87%
    11:00 +7°C° 0 mm 3 m/s 758 mmHg 83%
    12:00 +9°C° 0 mm 3 m/s 757 mmHg 79%
    13:00 +8°C° 0 mm 2 m/s 757 mmHg 81%
    14:00 +8°C° 0 mm 2 m/s 757 mmHg 84%
    15:00 +9°C° 0 mm 1 m/s 757 mmHg 86%
    16:00 +7°C° 0 mm 2 m/s 757 mmHg 88%
    17:00 +6°C° 0 mm 2 m/s 757 mmHg 90%
    18:00 +5°C° 0 mm 2 m/s 757 mmHg 92%
    19:00 +5°C° 0 mm 2 m/s 757 mmHg 92%
    20:00 +5°C° 0 mm 2 m/s 757 mmHg 92%
    21:00 +5°C° 0 mm 2 m/s 757 mmHg 92%
    22:00 +4°C° 0 mm 2 m/s 757 mmHg 92%
    23:00 +5°C° 0 mm 1 m/s 756 mmHg 92%

    24 Novembre, Samedi

    Heure Température Précipitation Vent Pression Humidité
    00:00 +5°C° 0 mm 1 m/s 756 mmHg 92%
    01:00 +5°C° 0 mm 1 m/s 756 mmHg 92%
    02:00 +5°C° 0 mm 1 m/s 756 mmHg 92%
    03:00 +5°C° 0 mm 1 m/s 756 mmHg 92%
    04:00 +5°C° 0.2 mm 1 m/s 756 mmHg 93%
    05:00 +5°C° 0.2 mm 1 m/s 756 mmHg 94%
    06:00 +5°C° 0.2 mm 1 m/s 756 mmHg 95%
    07:00 +5°C° 0.3 mm 1 m/s 756 mmHg 94%
    08:00 +6°C° 0.3 mm 1 m/s 756 mmHg 94%
    09:00 +6°C° 0.3 mm 1 m/s 757 mmHg 94%
    10:00 +7°C° 0.1 mm 1 m/s 757 mmHg 92%
    11:00 +6°C° 0.1 mm 2 m/s 757 mmHg 90%
    12:00 +7°C° 0.1 mm 2 m/s 757 mmHg 88%
    13:00 +7°C° 0.1 mm 2 m/s 757 mmHg 89%
    14:00 +8°C° 0.1 mm 1 m/s 756 mmHg 89%
    15:00 +8°C° 0.1 mm 1 m/s 756 mmHg 90%
    16:00 +8°C° 0 mm 1 m/s 757 mmHg 91%
    17:00 +7°C° 0 mm 1 m/s 757 mmHg 91%
    18:00 +7°C° 0 mm 1 m/s 757 mmHg 91%
    19:00 +7°C° 0 mm 1 m/s 757 mmHg 91%
    20:00 +7°C° 0 mm 1 m/s 757 mmHg 91%
    21:00 +7°C° 0 mm 1 m/s 757 mmHg 91%
    22:00 +7°C° 0 mm 1 m/s 757 mmHg 92%
    23:00 +6°C° 0 mm 1 m/s 757 mmHg 92%

    25 Novembre, Dimanche

    Heure Température Précipitation Vent Pression Humidité
    00:00 +5°C° 0 mm 2 m/s 757 mmHg 93%
    01:00 +5°C° 0 mm 2 m/s 757 mmHg 93%
    02:00 +5°C° 0 mm 2 m/s 756 mmHg 93%
    03:00 +4°C° 0 mm 2 m/s 756 mmHg 94%
    04:00 +3°C° 0 mm 3 m/s 756 mmHg 94%
    05:00 +3°C° 0 mm 3 m/s 756 mmHg 94%
    06:00 +2°C° 0 mm 3 m/s 755 mmHg 95%
    07:00 +3°C° 0 mm 4 m/s 755 mmHg 93%
    08:00 +3°C° 0 mm 4 m/s 755 mmHg 91%
    09:00 +3°C° 0 mm 4 m/s 755 mmHg 89%
    10:00 +3°C° 0 mm 5 m/s 755 mmHg 86%
    11:00 +5°C° 0 mm 5 m/s 755 mmHg 82%
    12:00 +6°C° 0 mm 5 m/s 754 mmHg 79%
    13:00 +6°C° 0 mm 5 m/s 754 mmHg 80%
    14:00 +6°C° 0 mm 5 m/s 754 mmHg 82%
    15:00 +5°C° 0 mm 5 m/s 753 mmHg 83%
    16:00 +5°C° 0 mm 5 m/s 753 mmHg 85%
    17:00 +3°C° 0 mm 5 m/s 753 mmHg 86%
    18:00 +3°C° 0 mm 5 m/s 753 mmHg 88%
    19:00 +2°C° 0 mm 5 m/s 753 mmHg 89%
    20:00 +2°C° 0 mm 5 m/s 753 mmHg 90%
    21:00 +2°C° 0 mm 5 m/s 753 mmHg 91%
    22:00 +2°C° 0 mm 5 m/s 753 mmHg 91%
    23:00 +2°C° 0 mm 5 m/s 752 mmHg 90%

    26 Novembre, Lundi

    Heure Température Précipitation Vent Pression Humidité
    00:00 +2°C° 0 mm 5 m/s 752 mmHg 90%
    01:00 +2°C° 0 mm 5 m/s 751 mmHg 90%
    02:00 +2°C° 0 mm 5 m/s 751 mmHg 89%
    03:00 +2°C° 0 mm 6 m/s 750 mmHg 89%
    04:00 +2°C° 0 mm 6 m/s 750 mmHg 89%
    05:00 +2°C° 0 mm 6 m/s 749 mmHg 89%
    06:00 +2°C° 0 mm 6 m/s 749 mmHg 89%
    07:00 +3°C° 0.2 mm 6 m/s 749 mmHg 87%
    08:00 +3°C° 0.2 mm 7 m/s 749 mmHg 86%
    09:00 +3°C° 0.2 mm 7 m/s 748 mmHg 84%
    10:00 +4°C° 0.5 mm 7 m/s 748 mmHg 83%
    11:00 +4°C° 0.5 mm 7 m/s 748 mmHg 83%
    12:00 +5°C° 0.5 mm 7 m/s 747 mmHg 82%
    13:00 +5°C° 0.6 mm 7 m/s 747 mmHg 83%
    14:00 +5°C° 0.6 mm 7 m/s 747 mmHg 84%
    15:00 +5°C° 0.6 mm 6 m/s 746 mmHg 85%
    16:00 +4°C° 0.3 mm 6 m/s 746 mmHg 86%
    17:00 +4°C° 0.3 mm 6 m/s 746 mmHg 86%
    18:00 +4°C° 0.3 mm 7 m/s 746 mmHg 86%
    19:00 +4°C° 0.2 mm 6 m/s 747 mmHg 86%
    20:00 +4°C° 0.2 mm 6 m/s 747 mmHg 86%
    21:00 +4°C° 0.2 mm 6 m/s 747 mmHg 87%
    22:00 +5°C° 0 mm 5 m/s 747 mmHg 87%
    23:00 +5°C° 0 mm 5 m/s 747 mmHg 88%
    Voir plus